星链-5642 (STARLINK-5642 )

导读 | 星芒AI

STARLINK-5642 是 SpaceX 星链计划中的一颗低轨通信卫星,属于第 14 批组网发射的星链卫星之一。该卫星部署在约 550 公里的近地轨道,旨在为全球用户提供高速互联网服务。它采用先进的星载通信技术,支持 Ku 和 Ka 频段,具备激光链路实现星间通信。作为星链星座的重要组成部分,STARLINK-5642 有助于提升网络覆盖和连接稳定性,特别是在偏远和网络基础设施薄弱的地区。

基本信息
目录编号:
55430
目录名称:
STARLINK-5642
国际标识:
2023-014AR
轨道中心:
EARTH
卫星名称:
星链-5642
卫星全名:
星链-5642 (STARLINK-5642 )
卫星状态:
在轨 (已飞行1055 天)
发射日期:
2023-01-31 UTC
国别 :
美国 (US)
星等 :
--
轨道信息
数据来源 国际轨道数据
星历时间: 2025-12-21T11:11:47+0800
11小时前
查看轨道信息
半长轴: 6950.154km
偏心率: 0.0002816
轨道倾角: 70.000°
近地点辐角 272.440°
升交点赤经 302.444°
平近点角 87.644°
近地点: 570.059km
远地点: 573.975km
周期: 96.106分钟
每日圈数: 14.983426
详细信息
固有亮度:
5
最大亮度:
2.5
卫星平台:
Starlink v1.5
覆盖范围:
全球
运营商:
太空探索技术公司
运营商所在国:
美国
制造商(研发单位):
太空探索技术公司
制造商所在国:
美国
使用方式:
暂无
卫星简介
星链(Starlink)计划是由太空探索技术公司(SpaceX)提出的一个巨型低轨卫星互联网星座项目,计划在2019年至2024年间在太空搭建由约1.2万颗卫星组成的“星链”网络,其中1584颗将部署在地球上空550千米处的近地轨道,并从2020年开始工作。该卫星仍在工作。
2D轨道图
3D轨道图
轨道高度分析图
轨道倾角分析图
轨道综合分析图
查看轨道综合分析图